[[{"header":{"parameterUnit":"m.s-1","parameterCategory":2,"la1":30.2991,"la2":30.254,"lo1":-89.0895,"lo2":-89.0444,"dy":0.0017,"dx":0.0017,"nx":28,"ny":28,"refTime":"2023-09-19T09:00:00:Z","depth":"0","parameterNumber":2,"parameterNumberName":"U-component_of_CURRENTS"},"data":[0,0,0,0,0,0,0,0,0,0,0,0,0,0,0,0,0,0,0,0,0,0,0,0,0,0,0,0,0,0,0,0,0,0,0,0,0,0,0,0,0,0,0,0,0,0,0,0,0,0,0,0,0,0,0,0,0,0,-0.2461,-0.2463,0,-0.2606,-0.2607,-0.2608,-0.2589,-0.2587,-0.2585,-0.2583,-0.2533,-0.2534,-0.2535,0,0,0,0,0,0,0,0,0,0,0,0,0,-0.2215,-0.2219,-0.2461,-0.2463,-0.2466,-0.2605,-0.2607,-0.2609,-0.2589,-0.2587,-0.2584,-0.2582,-0.2533,-0.2534,-0.2535,0,0,0,0,0,0,0,0,0,0,0,0,0,-0.2333,-0.222,-0.2461,-0.2475,-0.2478,-0.2605,-0.2607,-0.2609,-0.259,-0.2587,-0.2584,-0.2581,-0.2533,-0.2534,-0.2535,-0.2602,0,0,-0.2537,-0.2538,0,0,0,0,0,0,0,0,-0.2326,-0.2341,-0.2471,-0.2475,-0.2478,-0.2579,-0.2502,-0.2598,-0.2591,-0.2544,-0.2583,-0.2579,-0.2535,-0.2536,-0.2567,-0.2599,-0.2597,-0.2537,-0.2538,-0.2538,-0.2539,0,0,0,0,0,0,0,-0.2318,-0.2336,-0.2515,-0.2474,-0.2478,-0.2491,-0.2503,-0.2521,-0.2548,-0.2547,-0.2547,-0.257,-0.2535,-0.2567,-0.2566,-0.2596,-0.2537,-0.2538,-0.2539,-0.2539,-0.2685,-0.2688,0,0,0,0,0,0,-0.231,-0.2328,-0.251,-0.2519,-0.2397,-0.2498,-0.2512,-0.2547,-0.2553,-0.2553,-0.2573,-0.2569,-0.2567,-0.2565,-0.2563,-0.2616,-0.2538,-0.2539,-0.254,-0.2682,-0.2686,-0.2689,0,0,0,0,0,0,-0.2304,-0.2325,-0.2504,-0.2428,-0.2452,-0.2505,-0.2545,-0.2552,-0.2578,-0.2575,-0.257,-0.2592,-0.2564,-0.2562,-0.2592,-0.2613,-0.254,-0.254,-0.2678,-0.2683,-0.2688,-0.2736,0,0,0,0,0,0,-0.2297,-0.2323,-0.2332,-0.2429,-0.2457,-0.2593,-0.2549,-0.2557,-0.2599,-0.2595,-0.259,-0.2583,-0.2562,-0.2591,-0.2593,-0.2613,-0.2541,-0.2674,-0.268,-0.2686,-0.273,-0.2742,-0.2752,0,0,0,0,0,-0.2287,-0.2322,-0.2332,-0.2353,-0.2473,-0.2596,-0.2612,-0.2635,-0.2603,-0.264,-0.263,-0.2582,-0.2631,-0.2595,-0.2596,-0.2617,-0.2671,-0.2678,-0.2686,-0.2725,-0.274,-0.2752,0,0,0,0,0,0,-0.2217,-0.2327,-0.2339,-0.2402,-0.2496,-0.2594,-0.2624,-0.2645,-0.2674,-0.2651,-0.2626,-0.2622,-0.2667,-0.265,-0.261,-0.2686,-0.2644,-0.2652,-0.2674,-0.2687,-0.2698,-0.2657,-0.2542,0,0,0,0,0,-0.221,-0.2255,-0.2376,-0.2421,-0.2473,-0.2549,-0.2592,-0.2625,-0.2671,-0.2681,-0.2684,-0.2685,-0.2708,-0.2698,-0.2731,-0.276,-0.2698,-0.278,-0.2791,-0.28,-0.2773,-0.2696,-0.2695,-0.2714,-0.2714,-0.2714,0,0,-0.219,-0.2256,-0.2278,-0.2407,-0.2472,-0.2562,-0.2567,-0.2653,-0.2699,-0.267,-0.2715,-0.2737,-0.2736,-0.2782,-0.2796,-0.2754,-0.2776,-0.281,-0.2816,-0.2784,-0.2704,-0.27,-0.2698,-0.2719,-0.2718,-0.2718,0,0,-0.2187,-0.2244,-0.2288,-0.2381,-0.2498,-0.2564,-0.2593,-0.271,-0.2731,-0.2802,-0.2792,-0.2825,-0.286,-0.2864,-0.2865,-0.2959,-0.2857,-0.2974,-0.296,-0.2888,-0.2883,-0.2877,-0.283,-0.282,-0.2951,-0.2951,-0.2951,0,-0.2153,-0.2227,-0.2321,-0.2405,-0.2461,-0.2566,-0.2633,-0.2704,-0.2807,-0.2807,-0.2816,-0.2869,-0.2896,-0.2903,-0.2952,-0.2977,-0.2912,-0.29,-0.2893,-0.2886,-0.288,-0.2832,-0.282,-0.2954,-0.2954,-0.2953,-0.2953,0,-0.2204,-0.2261,-0.2305,-0.243,-0.2513,-0.2596,-0.2717,-0.2779,-0.2812,-0.2856,-0.2894,-0.294,-0.2939,-0.2988,-0.2998,-0.2984,-0.2948,-0.293,-0.2837,-0.2879,-0.2829,-0.2815,-0.2959,-0.2957,-0.2956,-0.2956,0,0,-0.2134,-0.2298,-0.2309,-0.2347,-0.2526,-0.2594,-0.2687,-0.2777,-0.2779,-0.2879,-0.2857,-0.2963,-0.2957,-0.2961,-0.2982,-0.2944,-0.2902,-0.2912,-0.2907,-0.2828,-0.2729,-0.2706,-0.2688,-0.2847,-0.2845,-0.2843,-0.2721,0,-0.2134,-0.224,-0.2332,-0.2421,-0.249,-0.2603,-0.2663,-0.2751,-0.2806,-0.2827,-0.2868,-0.2883,-0.2952,-0.2937,-0.2919,-0.2914,-0.2862,-0.2936,-0.2732,-0.2727,-0.2667,-0.2671,-0.2577,-0.2458,-0.2707,-0.2705,-0.2703,0,-0.2157,-0.2216,-0.229,-0.2381,-0.2417,-0.2479,-0.2547,-0.262,-0.2691,-0.2716,-0.2736,-0.277,-0.2787,-0.2816,-0.2769,-0.2797,-0.276,-0.2748,-0.2741,-0.2678,-0.2676,-0.2455,-0.2424,-0.2418,-0.2682,-0.2683,-0.2685,0,-0.2055,-0.218,-0.2209,-0.2262,-0.2399,-0.2411,-0.2471,-0.2562,-0.2599,-0.263,-0.2638,-0.2647,-0.2651,-0.2606,-0.2654,-0.267,-0.2571,-0.258,-0.2517,-0.2516,-0.2376,-0.2367,-0.2273,-0.2486,-0.2486,-0.2486,-0.2487,0,-0.2031,-0.2055,-0.2152,-0.2182,-0.2189,-0.2309,-0.2319,-0.2383,-0.2448,-0.2474,-0.2552,-0.2558,-0.259,-0.2578,-0.2581,-0.2522,-0.2502,-0.2497,-0.2467,-0.2402,-0.2397,-0.2338,-0.2371,-0.2482,-0.2483,-0.2484,-0.2484,0,-0.194,-0.2013,-0.205,-0.2137,-0.2155,-0.2159,-0.2257,-0.2275,-0.234,-0.2369,-0.2376,-0.2466,-0.2455,-0.2488,-0.2433,-0.2429,-0.2331,-0.2346,-0.2295,-0.2262,-0.2198,-0.2239,-0.2091,-0.2032,-0.2226,-0.2224,-0.2223,0,-0.1907,-0.1917,-0.1988,-0.2003,-0.2041,-0.2071,-0.2106,-0.2203,-0.2238,-0.2322,-0.2323,-0.2344,-0.2366,-0.231,-0.2284,-0.2228,-0.225,-0.2107,-0.2133,-0.2161,-0.2184,-0.2216,-0.218,-0.1982,-0.1979,-0.1976,-0.1974,0,-0.183,-0.1849,-0.1877,-0.1903,-0.1931,-0.1961,-0.2012,-0.2033,-0.2142,-0.2172,-0.2212,-0.2229,-0.2219,-0.2153,-0.2108,-0.2065,-0.2061,-0.2051,-0.2058,-0.1963,-0.2004,-0.1945,-0.2134,-0.1951,-0.1954,-0.1955,-0.1957,-0.1957,-0.175,-0.1746,-0.1778,-0.1789,-0.1823,-0.1834,-0.1821,-0.1895,-0.1921,-0.1955,-0.2048,-0.2047,-0.2054,-0.1986,-0.1947,-0.1843,-0.1893,-0.1789,-0.183,-0.1856,-0.1812,-0.1978,-0.1787,-0.1789,-0.179,-0.1791,-0.1792,0,-0.1649,-0.1657,-0.167,-0.1682,-0.1668,-0.1715,-0.1744,-0.1719,-0.1711,-0.1789,-0.1806,-0.1844,-0.1784,-0.1796,-0.1726,-0.1653,-0.1609,-0.1612,-0.1619,-0.1586,-0.1685,-0.169,-0.1494,-0.1494,-0.1494,-0.1494,-0.1494,-0.1494,-0.1596,-0.1567,-0.1574,-0.1509,-0.1515,-0.1445,-0.1429,-0.1417,-0.144,-0.1454,-0.1503,-0.1589,-0.1633,-0.177,-0.1675,-0.1585,-0.1554,-0.1492,-0.1527,-0.1612,-0.1632,-0.1652,-0.1663,-0.1464,-0.1464,-0.1352,-0.1351,-0.1351]},{"header":{"parameterUnit":"m.s-1","parameterCategory":2,"la1":30.2991,"la2":30.254,"lo1":-89.0895,"lo2":-89.0444,"dy":0.0017,"dx":0.0017,"nx":28,"ny":28,"refTime":"2023-09-19T09:00:00:Z","depth":"0","parameterNumber":3,"parameterNumberName":"V-component_of_CURRENTS"},"data":[0,0,0,0,0,0,0,0,0,0,0,0,0,0,0,0,0,0,0,0,0,0,0,0,0,0,0,0,0,0,0,0,0,0,0,0,0,0,0,0,0,0,0,0,0,0,0,0,0,0,0,0,0,0,0,0,0,0,0.021,0.0212,0,0.0404,0.0407,0.0409,0.0512,0.0512,0.0512,0.0512,0.0705,0.071,0.0715,0,0,0,0,0,0,0,0,0,0,0,0,0,0.0039,0.0041,0.021,0.0212,0.0214,0.0404,0.0407,0.041,0.0512,0.0512,0.0512,0.0512,0.0703,0.0709,0.0716,0,0,0,0,0,0,0,0,0,0,0,0,0,0.0164,0.0042,0.021,0.0286,0.0295,0.0403,0.0407,0.0411,0.0512,0.0512,0.0512,0.0512,0.0701,0.0709,0.0716,0.0767,0,0,0.074,0.0744,0,0,0,0,0,0,0,0,0.0156,0.017,0.0273,0.0281,0.0291,0.0431,0.0418,0.0529,0.0512,0.0432,0.0512,0.0512,0.0612,0.0627,0.0668,0.0776,0.0784,0.0741,0.0746,0.0749,0.0751,0,0,0,0,0,0,0,0.0147,0.0163,0.029,0.0275,0.0286,0.0349,0.0366,0.044,0.0522,0.0439,0.0447,0.0464,0.0617,0.066,0.0673,0.0787,0.0741,0.0748,0.0753,0.0756,0.0966,0.0966,0,0,0,0,0,0,0.0113,0.0154,0.0284,0.0295,0.0219,0.0351,0.0371,0.0389,0.0522,0.0541,0.0464,0.0468,0.0646,0.0663,0.068,0.0723,0.0749,0.0756,0.0761,0.0965,0.0966,0.0967,0,0,0,0,0,0,0.0108,0.0122,0.0276,0.0227,0.025,0.0353,0.0374,0.0392,0.0434,0.054,0.056,0.0485,0.0647,0.0669,0.0743,0.0731,0.076,0.0767,0.0964,0.0965,0.0966,0.0823,0,0,0,0,0,0,0.0103,0.012,0.0116,0.0224,0.0252,0.0325,0.0374,0.0396,0.0444,0.0451,0.0565,0.0583,0.0649,0.0731,0.0751,0.0743,0.0773,0.0963,0.0964,0.0966,0.0827,0.082,0.0813,0,0,0,0,0,0.0096,0.0089,0.0115,0.013,0.0245,0.0325,0.0345,0.042,0.0444,0.0458,0.0537,0.058,0.0756,0.0737,0.0761,0.0755,0.0962,0.0964,0.0966,0.083,0.0821,0.0814,0,0,0,0,0,0,0.0015,0.0102,0.0132,0.0152,0.0225,0.0341,0.0356,0.0413,0.0489,0.0491,0.0592,0.0616,0.0682,0.0745,0.0722,0.0826,0.0866,0.0873,0.0755,0.0748,0.0741,0.0697,0.078,0,0,0,0,0,-0.0007,0.0006,0.0106,0.0119,0.0149,0.0251,0.0291,0.0344,0.0427,0.0462,0.0543,0.0631,0.0712,0.0746,0.0832,0.088,0.0909,0.0896,0.0889,0.0882,0.0867,0.0899,0.0892,0.0973,0.0973,0.0973,0,0,-0.0036,0.0011,0.0019,0.0101,0.0161,0.0195,0.0275,0.0325,0.0352,0.0469,0.0524,0.0615,0.0725,0.0784,0.0818,0.0828,0.0874,0.0885,0.0878,0.0866,0.09,0.0891,0.0884,0.0975,0.0975,0.0974,0,0,-0.0094,-0.0046,-0.0055,-0.0001,0.0077,0.0145,0.0152,0.0264,0.031,0.0378,0.0472,0.0549,0.067,0.0742,0.0794,0.0804,0.0845,0.0837,0.0752,0.0783,0.0775,0.0769,0.0771,0.0766,0.0821,0.082,0.082,0,-0.0134,-0.0124,-0.0044,-0.0035,-0.0003,0.0111,0.0116,0.0184,0.0304,0.0337,0.0372,0.0558,0.0647,0.0721,0.0725,0.0784,0.0796,0.0763,0.0767,0.0762,0.0758,0.0762,0.0758,0.0814,0.0814,0.0815,0.0816,0,-0.0187,-0.0179,-0.018,-0.0133,-0.0089,-0.0064,0.0035,0.0082,0.015,0.0225,0.0316,0.0444,0.0548,0.0594,0.066,0.0686,0.0702,0.0756,0.0769,0.0739,0.0748,0.0746,0.0804,0.0807,0.0809,0.081,0,0,-0.0262,-0.0228,-0.0225,-0.0223,-0.0138,-0.0101,-0.007,0.0007,0.003,0.014,0.0174,0.0319,0.0392,0.0457,0.0558,0.0585,0.0566,0.0638,0.0643,0.0605,0.06,0.0658,0.0662,0.0607,0.0606,0.0606,0.0607,0,-0.0323,-0.0348,-0.0304,-0.0312,-0.0307,-0.0212,-0.0188,-0.0109,-0.0027,0.0036,0.0161,0.0244,0.0339,0.0387,0.0427,0.0554,0.0559,0.0559,0.0666,0.0669,0.0695,0.0662,0.0705,0.0715,0.0606,0.0606,0.0606,0,-0.0377,-0.0386,-0.042,-0.0397,-0.0386,-0.0373,-0.0308,-0.0271,-0.0163,-0.0103,-0.0014,0.0099,0.0189,0.0265,0.0401,0.0391,0.0468,0.0547,0.055,0.0652,0.0725,0.0738,0.0717,0.0879,0.0604,0.0604,0.0604,0,-0.0453,-0.0456,-0.0493,-0.0481,-0.044,-0.0439,-0.0407,-0.0316,-0.0282,-0.0189,-0.0154,-0.0028,0.0051,0.0155,0.0345,0.0356,0.0477,0.0522,0.0634,0.0638,0.0723,0.0736,0.0844,0.0573,0.0573,0.0573,0.0573,0,-0.0518,-0.0539,-0.0534,-0.0547,-0.0578,-0.052,-0.0523,-0.047,-0.0399,-0.0365,-0.0232,-0.0173,0.0025,0.0146,0.0283,0.0459,0.043,0.0602,0.0643,0.0676,0.0684,0.0872,0.0941,0.0573,0.0573,0.0573,0.0573,0,-0.0582,-0.0584,-0.0618,-0.0613,-0.0616,-0.0631,-0.0601,-0.0592,-0.0521,-0.0477,-0.0453,-0.0287,-0.0123,0.0074,0.0266,0.0397,0.0651,0.0614,0.0629,0.0672,0.0926,0.0985,0.1109,0.1206,0.0712,0.0713,0.0714,0,-0.0616,-0.0645,-0.0675,-0.0703,-0.0704,-0.0717,-0.0724,-0.0662,-0.0643,-0.0532,-0.0517,-0.0352,-0.0203,0.0098,0.0356,0.0584,0.0714,0.0739,0.0784,0.0932,0.1028,0.106,0.1135,0.0825,0.0827,0.0829,0.083,0,-0.0672,-0.0684,-0.0715,-0.0782,-0.0809,-0.083,-0.083,-0.0834,-0.0751,-0.0694,-0.0585,-0.0463,-0.0139,0.0181,0.0496,0.0632,0.0867,0.078,0.094,0.1124,0.1159,0.1276,0.0811,0.0845,0.0844,0.0843,0.0842,0.0841,-0.0703,-0.0745,-0.0794,-0.0851,-0.089,-0.0927,-0.0937,-0.0915,-0.0881,-0.076,-0.0644,-0.0423,0.0049,0.0522,0.0696,0.1064,0.1013,0.1165,0.1217,0.1228,0.1353,0.0908,0.0998,0.0997,0.0997,0.0996,0.0996,0,-0.0741,-0.0791,-0.0857,-0.0925,-0.098,-0.0978,-0.0992,-0.0969,-0.0925,-0.0769,-0.062,-0.0115,0.0348,0.0774,0.1307,0.1502,0.1544,0.1576,0.1638,0.1691,0.1307,0.1348,0.1512,0.1512,0.1511,0.1511,0.1511,0.1511,-0.0762,-0.0837,-0.0878,-0.0984,-0.1029,-0.1065,-0.1068,-0.101,-0.0895,-0.0609,-0.0323,-0.0077,0.0519,0.1389,0.188,0.1911,0.2088,0.204,0.214,0.1892,0.1858,0.1825,0.1882,0.2155,0.2156,0.2519,0.2523,0.2526]}],[{"header":{"parameterUnit":"m.s-1","parameterCategory":2,"la1":30.2991,"la2":30.254,"lo1":-89.0895,"lo2":-89.0444,"dy":0.0017,"dx":0.0017,"nx":28,"ny":28,"refTime":"2023-09-19T09:00:00:Z","depth":"2","parameterNumber":2,"parameterNumberName":"U-component_of_CURRENTS"},"data":[0,0,0,0,0,0,0,0,0,0,0,0,0,0,0,0,0,0,0,0,0,0,0,0,0,0,0,0,0,0,0,0,0,0,0,0,0,0,0,0,0,0,0,0,0,0,0,0,0,0,0,0,0,0,0,0,0,0,-0.2103,-0.2104,0,-0.2164,-0.2164,-0.2164,-0.2137,-0.2136,-0.2135,-0.2134,-0.2204,-0.2207,-0.2209,0,0,0,0,0,0,0,0,0,0,0,0,0,-0.1962,-0.1965,-0.2102,-0.2104,-0.2105,-0.2164,-0.2164,-0.2164,-0.2137,-0.2136,-0.2134,-0.2133,-0.2203,-0.2206,-0.221,0,0,0,0,0,0,0,0,0,0,0,0,0,-0.2018,-0.1965,-0.2102,-0.2103,-0.2104,-0.2164,-0.2164,-0.2164,-0.2137,-0.2136,-0.2134,-0.2133,-0.2202,-0.2206,-0.221,-0.2266,0,0,-0.2223,-0.2225,0,0,0,0,0,0,0,0,-0.2015,-0.2022,-0.2101,-0.2103,-0.2104,-0.2146,-0.2141,-0.2201,-0.2137,-0.2118,-0.2134,-0.2132,-0.219,-0.2195,-0.2202,-0.2269,-0.2272,-0.2223,-0.2226,-0.2228,-0.2229,0,0,0,0,0,0,0,-0.2011,-0.202,-0.2121,-0.2103,-0.2105,-0.2101,-0.2106,-0.2151,-0.2158,-0.212,-0.2119,-0.2136,-0.219,-0.2198,-0.2203,-0.2273,-0.2223,-0.2227,-0.2229,-0.2231,-0.2432,-0.2435,0,0,0,0,0,0,-0.2017,-0.2016,-0.2119,-0.2123,-0.2061,-0.2105,-0.2111,-0.2129,-0.2157,-0.2161,-0.2137,-0.2135,-0.2191,-0.2199,-0.2206,-0.2302,-0.2228,-0.2231,-0.2234,-0.243,-0.2433,-0.2436,0,0,0,0,0,0,-0.2014,-0.2026,-0.2117,-0.2075,-0.2087,-0.2109,-0.213,-0.2132,-0.2135,-0.2171,-0.2174,-0.2139,-0.219,-0.22,-0.2247,-0.2303,-0.2233,-0.2237,-0.2426,-0.2431,-0.2434,-0.2476,0,0,0,0,0,0,-0.201,-0.2024,-0.2032,-0.2076,-0.209,-0.2161,-0.2132,-0.2134,-0.2151,-0.2147,-0.2175,-0.2179,-0.219,-0.2241,-0.2251,-0.2308,-0.224,-0.2423,-0.2428,-0.2433,-0.2471,-0.2481,-0.249,0,0,0,0,0,-0.2004,-0.2027,-0.2032,-0.2045,-0.2103,-0.2163,-0.217,-0.2175,-0.2152,-0.2168,-0.2179,-0.2178,-0.2283,-0.2246,-0.2258,-0.2317,-0.242,-0.2427,-0.2433,-0.2467,-0.2479,-0.249,0,0,0,0,0,0,-0.1965,-0.2029,-0.2035,-0.2073,-0.2119,-0.2161,-0.2176,-0.2179,-0.2199,-0.2195,-0.2203,-0.2211,-0.2287,-0.2295,-0.2254,-0.2394,-0.2357,-0.2366,-0.238,-0.2391,-0.2401,-0.2358,-0.2244,0,0,0,0,0,-0.1965,-0.1996,-0.2058,-0.2085,-0.2112,-0.2142,-0.2163,-0.2178,-0.2208,-0.2213,-0.2247,-0.2281,-0.2327,-0.2346,-0.24,-0.2461,-0.2411,-0.2513,-0.2523,-0.253,-0.2507,-0.2453,-0.2453,-0.2457,-0.2457,-0.2457,0,0,-0.1956,-0.1995,-0.201,-0.2079,-0.2109,-0.2164,-0.2149,-0.2197,-0.2238,-0.2223,-0.229,-0.2325,-0.2354,-0.2432,-0.2466,-0.2438,-0.2512,-0.2538,-0.2544,-0.2516,-0.2459,-0.2457,-0.2456,-0.2461,-0.246,-0.246,0,0,-0.1963,-0.1993,-0.2026,-0.2075,-0.2143,-0.2176,-0.2192,-0.226,-0.2281,-0.2351,-0.2359,-0.2403,-0.2488,-0.2511,-0.2529,-0.262,-0.2572,-0.2666,-0.2666,-0.2615,-0.2612,-0.2609,-0.2565,-0.2557,-0.2658,-0.2658,-0.2658,0,-0.1947,-0.1997,-0.2044,-0.2099,-0.2132,-0.2183,-0.2227,-0.2277,-0.2354,-0.2368,-0.2381,-0.2474,-0.2518,-0.2559,-0.2607,-0.2638,-0.2595,-0.2615,-0.262,-0.2615,-0.2611,-0.2567,-0.2558,-0.2661,-0.2661,-0.266,-0.266,0,-0.199,-0.203,-0.2058,-0.214,-0.2187,-0.2237,-0.2319,-0.2372,-0.2406,-0.2444,-0.2507,-0.2555,-0.2584,-0.2641,-0.2655,-0.2674,-0.2651,-0.2641,-0.2573,-0.2612,-0.2565,-0.2555,-0.2665,-0.2664,-0.2663,-0.2662,0,0,-0.1941,-0.2061,-0.2065,-0.2095,-0.2208,-0.2244,-0.233,-0.2397,-0.241,-0.2506,-0.2507,-0.2621,-0.2621,-0.2641,-0.2671,-0.2649,-0.2621,-0.2638,-0.2634,-0.2563,-0.2501,-0.2473,-0.2458,-0.2598,-0.2596,-0.2594,-0.2485,0,-0.1949,-0.2029,-0.2095,-0.2161,-0.2206,-0.2279,-0.2339,-0.2409,-0.246,-0.2494,-0.2536,-0.2571,-0.2628,-0.2631,-0.2626,-0.2629,-0.2592,-0.2651,-0.25,-0.2496,-0.2439,-0.2444,-0.2286,-0.2174,-0.2475,-0.2473,-0.2472,0,-0.1962,-0.201,-0.207,-0.2147,-0.2169,-0.2218,-0.2273,-0.2338,-0.2408,-0.2439,-0.2469,-0.2503,-0.253,-0.255,-0.2524,-0.2554,-0.2526,-0.2514,-0.2509,-0.2449,-0.2447,-0.2184,-0.2143,-0.2453,-0.2455,-0.2456,-0.2457,0,-0.1883,-0.1984,-0.2013,-0.205,-0.2158,-0.2177,-0.2226,-0.2305,-0.2345,-0.2385,-0.2398,-0.2424,-0.2433,-0.2404,-0.2441,-0.2458,-0.238,-0.2389,-0.2325,-0.2323,-0.214,-0.2125,-0.2315,-0.2315,-0.2316,-0.2316,-0.2316,0,-0.1861,-0.1883,-0.1972,-0.1992,-0.201,-0.2104,-0.2124,-0.218,-0.2245,-0.2275,-0.2347,-0.2358,-0.2394,-0.2387,-0.2388,-0.2336,-0.2329,-0.2307,-0.2284,-0.2159,-0.2148,-0.2351,-0.2357,-0.2312,-0.2313,-0.2313,-0.2314,0,-0.1779,-0.1845,-0.188,-0.1961,-0.198,-0.1988,-0.2076,-0.2098,-0.2164,-0.2197,-0.2208,-0.2293,-0.2287,-0.2314,-0.2271,-0.2264,-0.2214,-0.2187,-0.2056,-0.202,-0.2198,-0.2208,-0.2075,-0.2073,-0.2071,-0.2069,-0.2068,0,-0.1749,-0.1759,-0.1827,-0.1843,-0.1878,-0.1912,-0.1946,-0.2039,-0.2073,-0.2159,-0.2165,-0.2192,-0.2208,-0.2159,-0.2125,-0.2067,-0.2147,-0.1889,-0.1899,-0.2177,-0.2168,-0.2181,-0.2193,-0.1677,-0.1673,-0.1669,-0.1666,0,-0.1677,-0.1697,-0.1723,-0.1752,-0.1782,-0.1812,-0.1865,-0.1886,-0.1993,-0.2025,-0.2066,-0.208,-0.2066,-0.1959,-0.1909,-0.186,-0.1893,-0.1816,-0.2087,-0.179,-0.18,-0.1794,-0.1818,-0.1634,-0.1638,-0.164,-0.1642,-0.1643,-0.1604,-0.1601,-0.1633,-0.1647,-0.1683,-0.1697,-0.1686,-0.1758,-0.1785,-0.1814,-0.1906,-0.1874,-0.1878,-0.173,-0.1648,-0.1578,-0.1704,-0.1625,-0.1636,-0.165,-0.1651,-0.1661,-0.1468,-0.147,-0.1472,-0.1474,-0.1475,0,-0.151,-0.1519,-0.1534,-0.1549,-0.154,-0.1588,-0.1618,-0.1592,-0.1584,-0.1636,-0.1647,-0.1515,-0.1451,-0.1455,-0.1302,-0.1279,-0.1259,-0.1222,-0.1196,-0.1228,-0.1256,-0.1237,-0.0944,-0.0942,-0.0941,-0.0939,0,0,-0.1461,-0.1435,-0.1441,-0.1387,-0.1398,-0.1338,-0.1324,-0.1305,-0.1308,-0.1272,-0.1256,-0.1374,-0.1417,-0.119,-0.1131,-0.1011,-0.1105,-0.0958,-0.1383,-0.1382,-0.1409,-0.1485,-0.1492,0,0,0,0,0]},{"header":{"parameterUnit":"m.s-1","parameterCategory":2,"la1":30.2991,"la2":30.254,"lo1":-89.0895,"lo2":-89.0444,"dy":0.0017,"dx":0.0017,"nx":28,"ny":28,"refTime":"2023-09-19T09:00:00:Z","depth":"2","parameterNumber":3,"parameterNumberName":"V-component_of_CURRENTS"},"data":[0,0,0,0,0,0,0,0,0,0,0,0,0,0,0,0,0,0,0,0,0,0,0,0,0,0,0,0,0,0,0,0,0,0,0,0,0,0,0,0,0,0,0,0,0,0,0,0,0,0,0,0,0,0,0,0,0,0,-0.0027,-0.0027,0,0.0042,0.0043,0.0044,0.0106,0.0106,0.0107,0.0108,0.0323,0.0328,0.0333,0,0,0,0,0,0,0,0,0,0,0,0,0,-0.0097,-0.0096,-0.0027,-0.0027,-0.0026,0.0042,0.0043,0.0044,0.0106,0.0106,0.0107,0.0108,0.0322,0.0328,0.0334,0,0,0,0,0,0,0,0,0,0,0,0,0,-0.0051,-0.0096,-0.0028,0.0013,0.0017,0.0042,0.0043,0.0044,0.0106,0.0107,0.0108,0.0108,0.032,0.0327,0.0335,0.0362,0,0,0.0358,0.0361,0,0,0,0,0,0,0,0,-0.0053,-0.0048,0.0006,0.001,0.0015,0.0066,0.0097,0.0157,0.0105,0.0073,0.0108,0.0109,0.025,0.0263,0.0273,0.0372,0.0381,0.0359,0.0363,0.0367,0.0369,0,0,0,0,0,0,0,-0.0057,-0.0051,0.0001,0.0007,0.0012,0.003,0.0038,0.0108,0.0158,0.0076,0.008,0.0086,0.0253,0.0265,0.0279,0.0384,0.0359,0.0365,0.037,0.0373,0.0546,0.0546,0,0,0,0,0,0,-0.0068,-0.0054,-0.0001,0.0003,-0.0018,0.0031,0.0039,0.0049,0.0154,0.017,0.0085,0.0089,0.0251,0.027,0.0287,0.035,0.0367,0.0374,0.0378,0.0546,0.0546,0.0546,0,0,0,0,0,0,-0.007,-0.0064,-0.0004,-0.0025,-0.0016,0.0031,0.0041,0.005,0.0064,0.016,0.0179,0.0091,0.0253,0.0276,0.033,0.0358,0.0377,0.0384,0.0546,0.0546,0.0546,0.0461,0,0,0,0,0,0,-0.0072,-0.0065,-0.0067,-0.0025,-0.0015,-0.0001,0.004,0.005,0.0066,0.0071,0.0171,0.0191,0.0255,0.0318,0.0338,0.0369,0.039,0.0546,0.0546,0.0546,0.0464,0.0458,0.0454,0,0,0,0,0,-0.0075,-0.0084,-0.0068,-0.0062,-0.0018,-0.0002,0.0004,0.0042,0.0065,0.006,0.0121,0.0188,0.0334,0.0323,0.0347,0.0381,0.0546,0.0546,0.0546,0.0467,0.046,0.0454,0,0,0,0,0,0,-0.0121,-0.0077,-0.0059,-0.0055,-0.0035,0.0008,0.0006,0.0034,0.0076,0.0087,0.0178,0.0201,0.0265,0.0324,0.0311,0.0429,0.0456,0.0461,0.0388,0.0383,0.0377,0.0337,0.0397,0,0,0,0,0,-0.0132,-0.0126,-0.0086,-0.0088,-0.0079,-0.0038,-0.0027,-0.0001,0.0042,0.0061,0.0139,0.0218,0.0282,0.0328,0.0395,0.0454,0.0484,0.0494,0.0489,0.0484,0.0466,0.0518,0.0515,0.0546,0.0546,0.0546,0,0,-0.0154,-0.0129,-0.0127,-0.0098,-0.0078,-0.0075,-0.0029,-0.0019,-0.0006,0.0081,0.0131,0.0201,0.0289,0.0351,0.0388,0.0407,0.0489,0.0484,0.0479,0.0464,0.0518,0.0515,0.0512,0.0546,0.0546,0.0546,0,0,-0.02,-0.017,-0.0183,-0.0165,-0.0137,-0.011,-0.011,-0.0058,-0.0026,0.0016,0.0088,0.0153,0.0264,0.0328,0.0374,0.0377,0.0452,0.0422,0.0376,0.0427,0.0424,0.0423,0.0443,0.0443,0.0428,0.0428,0.0428,0,-0.0229,-0.0231,-0.0188,-0.0193,-0.0183,-0.013,-0.0142,-0.0106,-0.0039,-0.0007,0.0021,0.0171,0.0247,0.0321,0.0321,0.0367,0.0396,0.0392,0.0418,0.0417,0.0417,0.0438,0.044,0.0424,0.0424,0.0425,0.0425,0,-0.028,-0.028,-0.0288,-0.027,-0.0256,-0.0259,-0.0203,-0.0172,-0.0121,-0.0071,0.0011,0.0104,0.0193,0.024,0.028,0.0333,0.0352,0.0396,0.0427,0.0408,0.0432,0.0436,0.0418,0.042,0.0421,0.0422,0,0,-0.0343,-0.0328,-0.0329,-0.0331,-0.0293,-0.0287,-0.0262,-0.0221,-0.0197,-0.0113,-0.0073,0.0037,0.0099,0.0151,0.0234,0.028,0.0299,0.0329,0.0334,0.0335,0.0389,0.0428,0.0436,0.0352,0.0353,0.0353,0.0401,0,-0.0397,-0.0429,-0.0398,-0.042,-0.0429,-0.0367,-0.0349,-0.0297,-0.0234,-0.0176,-0.0072,-0.0002,0.0066,0.0112,0.0166,0.0274,0.0306,0.028,0.0419,0.0422,0.045,0.0442,0.0414,0.0457,0.0404,0.0405,0.0405,0,-0.0452,-0.0464,-0.0502,-0.0485,-0.0482,-0.0482,-0.0435,-0.041,-0.0318,-0.0264,-0.018,-0.009,0.0,0.0053,0.02,0.0183,0.0263,0.0337,0.0342,0.0408,0.0469,0.0473,0.0465,0.0412,0.0411,0.0411,0.041,0,-0.0517,-0.0528,-0.0563,-0.0558,-0.0536,-0.0531,-0.0511,-0.0437,-0.0408,-0.0319,-0.0283,-0.016,-0.0088,0.0025,0.0187,0.0193,0.0337,0.0373,0.0476,0.0479,0.0496,0.05,0.0449,0.0449,0.0449,0.0448,0.0448,0,-0.0578,-0.0599,-0.0597,-0.0614,-0.064,-0.0594,-0.0596,-0.0552,-0.0487,-0.0454,-0.0334,-0.0276,-0.0091,0.003,0.0156,0.0329,0.0319,0.0453,0.0497,0.0465,0.0466,0.0466,0.0467,0.045,0.045,0.0449,0.0449,0,-0.0637,-0.0641,-0.0675,-0.0672,-0.0675,-0.0689,-0.0663,-0.0654,-0.0586,-0.0542,-0.0517,-0.0359,-0.0196,-0.0014,0.0183,0.0299,0.0452,0.0512,0.0447,0.0483,0.0556,0.0553,0.0614,0.0616,0.0618,0.0619,0.062,0,-0.067,-0.0698,-0.0727,-0.0754,-0.0756,-0.0768,-0.0775,-0.0716,-0.0696,-0.0585,-0.0566,-0.0401,-0.0261,0.0038,0.0267,0.0488,0.0492,0.0577,0.0589,0.0539,0.0575,0.0569,0.0564,0.0567,0.0568,0.0569,0.0569,0,-0.0723,-0.0735,-0.0765,-0.0828,-0.0852,-0.0872,-0.0869,-0.0869,-0.0789,-0.073,-0.0618,-0.05,-0.0194,0.0072,0.0366,0.0485,0.0542,0.0595,0.0573,0.0537,0.0501,0.0535,0.053,0.0573,0.0573,0.0572,0.0572,0.0572,-0.0753,-0.0792,-0.0839,-0.0893,-0.0929,-0.0959,-0.0969,-0.0942,-0.0904,-0.0785,-0.0669,-0.0467,-0.0197,0.0231,0.0441,0.0623,0.062,0.066,0.0655,0.0651,0.0644,0.0615,0.0704,0.0704,0.0705,0.0705,0.0705,0,-0.0791,-0.0837,-0.0898,-0.0962,-0.1012,-0.101,-0.1017,-0.0994,-0.0945,-0.0797,-0.0654,-0.0369,-0.0053,0.0212,0.0524,0.0714,0.0688,0.0719,0.0658,0.0653,0.0648,0.0639,0.0699,0.0699,0.07,0.07,0,0,-0.0811,-0.0882,-0.092,-0.1017,-0.1059,-0.1092,-0.1093,-0.1034,-0.0925,-0.0777,-0.0615,-0.037,-0.0041,0.0179,0.0417,0.0574,0.0557,0.0572,0.0557,0.0452,0.0445,0.0594,0.0572,0,0,0,0,0]}],[{"header":{"parameterUnit":"m.s-1","parameterCategory":2,"la1":30.2991,"la2":30.254,"lo1":-89.0895,"lo2":-89.0444,"dy":0.0017,"dx":0.0017,"nx":28,"ny":28,"refTime":"2023-09-19T09:00:00:Z","depth":"4","parameterNumber":2,"parameterNumberName":"U-component_of_CURRENTS"},"data":[0,0,0,0,0,0,0,0,0,0,0,0,0,0,0,0,0,0,0,0,0,0,0,0,0,0,0,0,0,0,0,0,0,0,0,0,0,0,0,0,0,0,0,0,0,0,0,0,0,0,0,0,0,0,0,0,0,0,-0.13,-0.13,0,-0.1285,-0.1285,-0.1284,-0.1272,-0.1272,-0.1272,-0.1272,-0.1289,-0.1289,-0.129,0,0,0,0,0,0,0,0,0,0,0,0,0,-0.13,-0.13,-0.13,-0.13,-0.13,-0.1285,-0.1285,-0.1284,-0.1272,-0.1272,-0.1272,-0.1272,-0.1289,-0.1289,-0.129,0,0,0,0,0,0,0,0,0,0,0,0,0,-0.1292,-0.13,-0.13,-0.1294,-0.1294,-0.1285,-0.1285,-0.1284,-0.1272,-0.1272,-0.1272,-0.1272,-0.1289,-0.1289,-0.129,-0.1291,0,0,-0.1292,-0.1292,0,0,0,0,0,0,0,0,-0.1292,-0.1291,-0.1295,-0.1295,-0.1294,-0.1283,-0.1291,-0.1289,-0.1272,-0.1278,-0.1272,-0.1273,-0.1291,-0.1292,-0.1285,-0.1291,-0.1292,-0.1292,-0.1292,-0.1292,-0.1292,0,0,0,0,0,0,0,-0.1293,-0.1292,-0.1292,-0.1295,-0.1295,-0.1286,-0.1285,-0.129,-0.1283,-0.1277,-0.1277,-0.1279,-0.1291,-0.1284,-0.1285,-0.1292,-0.1292,-0.1292,-0.1292,-0.1293,-0.1363,-0.1365,0,0,0,0,0,0,-0.13,-0.1293,-0.1293,-0.1292,-0.1296,-0.1286,-0.1284,-0.1284,-0.1282,-0.1282,-0.1279,-0.1278,-0.1283,-0.1285,-0.1286,-0.1359,-0.1292,-0.1293,-0.1293,-0.1362,-0.1364,-0.1365,0,0,0,0,0,0,-0.13,-0.13,-0.1293,-0.1294,-0.1293,-0.1286,-0.1286,-0.1284,-0.1297,-0.1283,-0.1284,-0.1297,-0.1283,-0.1285,-0.1322,-0.1357,-0.1293,-0.1293,-0.136,-0.1362,-0.1364,-0.146,0,0,0,0,0,0,-0.13,-0.13,-0.1321,-0.1294,-0.1293,-0.1301,-0.1286,-0.1284,-0.1298,-0.1298,-0.1298,-0.1299,-0.1284,-0.1321,-0.1322,-0.1357,-0.1294,-0.1358,-0.1361,-0.1364,-0.1455,-0.1466,-0.1475,0,0,0,0,0,-0.13,-0.132,-0.1322,-0.1323,-0.1315,-0.1301,-0.13,-0.1294,-0.1299,-0.1306,-0.1321,-0.13,-0.134,-0.1323,-0.1324,-0.136,-0.1357,-0.136,-0.1363,-0.1451,-0.1464,-0.1474,0,0,0,0,0,0,-0.1322,-0.132,-0.1321,-0.1338,-0.1329,-0.1301,-0.1315,-0.131,-0.1325,-0.1338,-0.1324,-0.1326,-0.1369,-0.1352,-0.1334,-0.1387,-0.1343,-0.1346,-0.1409,-0.1421,-0.143,-0.1431,-0.1294,0,0,0,0,0,-0.1339,-0.1362,-0.1342,-0.136,-0.1358,-0.1343,-0.1346,-0.1339,-0.134,-0.1347,-0.1354,-0.1365,-0.1379,-0.1392,-0.1397,-0.1431,-0.1412,-0.1452,-0.1462,-0.147,-0.1471,-0.1477,-0.1488,-0.1377,-0.1377,-0.1377,0,0,-0.1352,-0.1358,-0.1369,-0.137,-0.1364,-0.1368,-0.1345,-0.1353,-0.1369,-0.1349,-0.1394,-0.1402,-0.1396,-0.1435,-0.1452,-0.1429,-0.1495,-0.1475,-0.1482,-0.1478,-0.1482,-0.1493,-0.1502,-0.1379,-0.1379,-0.1378,0,0,-0.1383,-0.1393,-0.1419,-0.1418,-0.1422,-0.1407,-0.1415,-0.1407,-0.1418,-0.1455,-0.145,-0.1481,-0.1504,-0.1507,-0.1511,-0.1576,-0.1546,-0.1583,-0.1636,-0.1643,-0.1652,-0.1659,-0.1663,-0.1671,-0.1588,-0.1589,-0.1589,0,-0.14,-0.1427,-0.1423,-0.1443,-0.1452,-0.1429,-0.1447,-0.1449,-0.1462,-0.1479,-0.1484,-0.1529,-0.1534,-0.1569,-0.1604,-0.1598,-0.1598,-0.1594,-0.1656,-0.1663,-0.1669,-0.1671,-0.1677,-0.1594,-0.1593,-0.1592,-0.1592,0,-0.1433,-0.1468,-0.148,-0.1502,-0.1511,-0.152,-0.1518,-0.1539,-0.1556,-0.1557,-0.1607,-0.1619,-0.1642,-0.1656,-0.1659,-0.1709,-0.1695,-0.1668,-0.1626,-0.1686,-0.1684,-0.1689,-0.1601,-0.1599,-0.1597,-0.1596,0,0,-0.1415,-0.1492,-0.1494,-0.1521,-0.1544,-0.154,-0.1585,-0.1598,-0.1626,-0.165,-0.1695,-0.1732,-0.1737,-0.1741,-0.1745,-0.1764,-0.1825,-0.1752,-0.175,-0.1757,-0.185,-0.1722,-0.1714,-0.1817,-0.1819,-0.1819,-0.1837,0,-0.1434,-0.1491,-0.153,-0.1575,-0.1591,-0.161,-0.165,-0.1669,-0.1693,-0.1732,-0.174,-0.1778,-0.1766,-0.1797,-0.1817,-0.1824,-0.1842,-0.1823,-0.179,-0.1789,-0.1667,-0.1717,-0.1823,-0.184,-0.1841,-0.1842,-0.1843,0,-0.143,-0.1475,-0.1533,-0.1612,-0.1622,-0.1654,-0.1701,-0.1736,-0.178,-0.1809,-0.184,-0.1847,-0.1888,-0.1869,-0.1894,-0.1888,-0.1885,-0.1878,-0.1878,-0.1723,-0.1669,-0.1764,-0.1852,-0.1851,-0.185,-0.185,-0.1849,0,-0.1375,-0.1465,-0.1516,-0.1537,-0.162,-0.1663,-0.1703,-0.1755,-0.1786,-0.1852,-0.1882,-0.1918,-0.1939,-0.1945,-0.1934,-0.1931,-0.1948,-0.1929,-0.1801,-0.1792,-0.186,-0.1852,-0.1941,-0.1941,-0.1941,-0.1941,-0.1941,0,-0.1347,-0.1387,-0.1499,-0.1516,-0.1573,-0.1647,-0.1705,-0.1753,-0.1828,-0.1855,-0.1912,-0.1927,-0.1963,-0.1967,-0.1959,-0.1887,-0.1959,-0.1814,-0.1787,-0.1902,-0.1898,-0.1865,-0.1856,-0.1942,-0.1941,-0.1941,-0.1941,0,-0.1267,-0.1346,-0.1404,-0.1513,-0.1546,-0.158,-0.1687,-0.1726,-0.181,-0.1852,-0.1875,-0.1942,-0.1944,-0.1952,-0.196,-0.1891,-0.1854,-0.1808,-0.1938,-0.1917,-0.1695,-0.1691,-0.1676,-0.1672,-0.1668,-0.1665,-0.1662,0,-0.1232,-0.1256,-0.1371,-0.1406,-0.1461,-0.1531,-0.158,-0.1689,-0.1724,-0.1829,-0.1834,-0.1881,-0.1902,-0.1806,-0.1837,-0.1795,-0.1766,-0.174,-0.1715,-0.1692,-0.1668,-0.167,-0.1671,-0.1656,-0.1655,-0.1654,-0.1653,0,-0.1158,-0.1209,-0.1256,-0.1324,-0.1385,-0.1439,-0.1517,-0.1531,-0.1646,-0.174,-0.1741,-0.1734,-0.1732,-0.1721,-0.1693,-0.1663,-0.1757,-0.17,-0.1708,-0.1685,-0.1668,-0.1648,-0.1653,-0.164,-0.1642,-0.1643,-0.1644,0,-0.1099,-0.1112,-0.118,-0.1224,-0.1299,-0.1325,-0.1382,-0.1427,-0.1472,-0.1598,-0.1591,-0.1646,-0.1716,-0.1651,-0.1629,-0.1585,-0.156,-0.1506,-0.1524,-0.1538,-0.148,-0.1438,-0.1319,0,0,0,0,0,-0.1033,-0.1038,-0.1078,-0.1126,-0.1197,-0.123,-0.133,-0.1392,-0.1502,-0.1463,-0.1523,-0.1514,-0.1486,-0.1517,-0.1439,-0.1557,-0.1562,-0.146,-0.1509,-0.1568,-0.1583,-0.1525,0,0,0,0,0,0,-0.099,-0.1024,-0.1036,-0.1027,-0.104,-0.1099,-0.1154,-0.1237,-0.1221,-0.1339,-0.133,-0.1414,-0.1406,-0.1499,-0.1404,-0.141,-0.1408,-0.1499,-0.1495,-0.156,-0.1573,-0.1585,-0.1531,0,0,0,0,0]},{"header":{"parameterUnit":"m.s-1","parameterCategory":2,"la1":30.2991,"la2":30.254,"lo1":-89.0895,"lo2":-89.0444,"dy":0.0017,"dx":0.0017,"nx":28,"ny":28,"refTime":"2023-09-19T09:00:00:Z","depth":"4","parameterNumber":3,"parameterNumberName":"V-component_of_CURRENTS"},"data":[0,0,0,0,0,0,0,0,0,0,0,0,0,0,0,0,0,0,0,0,0,0,0,0,0,0,0,0,0,0,0,0,0,0,0,0,0,0,0,0,0,0,0,0,0,0,0,0,0,0,0,0,0,0,0,0,0,0,-0.0198,-0.0199,0,-0.0227,-0.0227,-0.0227,-0.0219,-0.0219,-0.0218,-0.0218,-0.024,-0.0241,-0.0242,0,0,0,0,0,0,0,0,0,0,0,0,0,-0.0164,-0.0164,-0.0198,-0.0199,-0.0199,-0.0227,-0.0227,-0.0227,-0.0219,-0.0219,-0.0218,-0.0218,-0.024,-0.0241,-0.0242,0,0,0,0,0,0,0,0,0,0,0,0,0,-0.0182,-0.0164,-0.0198,-0.02,-0.0201,-0.0227,-0.0227,-0.0227,-0.0219,-0.0219,-0.0218,-0.0218,-0.024,-0.0241,-0.0242,-0.0262,0,0,-0.0247,-0.0247,0,0,0,0,0,0,0,0,-0.0181,-0.0183,-0.02,-0.02,-0.0201,-0.0221,-0.0223,-0.0239,-0.0219,-0.021,-0.0218,-0.0217,-0.0235,-0.0237,-0.024,-0.0263,-0.0264,-0.0247,-0.0248,-0.0248,-0.0249,0,0,0,0,0,0,0,-0.0179,-0.0182,-0.0207,-0.02,-0.0201,-0.0209,-0.0211,-0.0226,-0.0223,-0.0211,-0.0211,-0.0218,-0.0235,-0.0239,-0.0241,-0.0265,-0.0247,-0.0248,-0.0249,-0.0249,-0.0297,-0.0297,0,0,0,0,0,0,-0.018,-0.018,-0.0206,-0.0208,-0.0192,-0.0211,-0.0212,-0.0213,-0.0223,-0.0225,-0.0218,-0.0217,-0.0237,-0.0239,-0.0242,-0.0267,-0.0248,-0.025,-0.025,-0.0296,-0.0297,-0.0297,0,0,0,0,0,0,-0.0179,-0.0182,-0.0205,-0.0197,-0.0201,-0.0212,-0.0213,-0.0214,-0.0217,-0.023,-0.0231,-0.022,-0.0236,-0.024,-0.0253,-0.0268,-0.025,-0.0251,-0.0296,-0.0296,-0.0297,-0.0317,0,0,0,0,0,0,-0.0178,-0.0181,-0.0184,-0.0197,-0.0202,-0.0229,-0.0214,-0.0215,-0.0223,-0.0222,-0.0232,-0.0233,-0.0236,-0.0251,-0.0254,-0.0269,-0.0253,-0.0295,-0.0296,-0.0297,-0.0316,-0.0318,-0.032,0,0,0,0,0,-0.0176,-0.0186,-0.0183,-0.0187,-0.0204,-0.023,-0.0233,-0.0237,-0.0224,-0.0235,-0.0232,-0.0233,-0.0258,-0.0252,-0.0257,-0.0272,-0.0295,-0.0296,-0.0297,-0.0315,-0.0318,-0.032,0,0,0,0,0,0,-0.0183,-0.0187,-0.0184,-0.0197,-0.0215,-0.023,-0.0243,-0.0239,-0.0245,-0.024,-0.024,-0.0242,-0.0264,-0.0262,-0.0255,-0.0287,-0.0276,-0.0278,-0.0289,-0.0292,-0.0294,-0.0267,-0.0254,0,0,0,0,0,-0.0184,-0.0187,-0.02,-0.0214,-0.0222,-0.023,-0.024,-0.0241,-0.0249,-0.0251,-0.0256,-0.026,-0.0272,-0.0275,-0.0291,-0.0306,-0.0257,-0.0317,-0.0319,-0.0321,-0.0301,-0.0231,-0.0224,-0.03,-0.03,-0.03,0,0,-0.0195,-0.0196,-0.0201,-0.0215,-0.0227,-0.0248,-0.0234,-0.0254,-0.0262,-0.0254,-0.0268,-0.0275,-0.028,-0.03,-0.0308,-0.0297,-0.0276,-0.0322,-0.0324,-0.0302,-0.0231,-0.0223,-0.0216,-0.0301,-0.0301,-0.0301,0,0,-0.0224,-0.0217,-0.0232,-0.0241,-0.0258,-0.0265,-0.027,-0.0284,-0.028,-0.0295,-0.0291,-0.0291,-0.0319,-0.0314,-0.0316,-0.0336,-0.0297,-0.0356,-0.0339,-0.0272,-0.0264,-0.0257,-0.019,-0.0177,-0.0349,-0.0349,-0.0349,0,-0.0238,-0.0253,-0.0245,-0.0261,-0.0272,-0.0272,-0.0295,-0.0297,-0.0311,-0.0303,-0.0303,-0.0305,-0.0318,-0.0313,-0.0326,-0.0339,-0.0293,-0.0331,-0.0272,-0.0263,-0.0255,-0.0189,-0.0173,-0.035,-0.035,-0.035,-0.035,0,-0.0277,-0.0287,-0.0301,-0.0314,-0.0323,-0.0347,-0.0346,-0.0349,-0.0342,-0.0336,-0.0328,-0.0324,-0.0316,-0.0331,-0.0338,-0.0301,-0.0285,-0.0288,-0.026,-0.0248,-0.018,-0.0163,-0.0352,-0.0351,-0.0351,-0.0351,0,0,-0.0317,-0.0327,-0.0331,-0.034,-0.0349,-0.0365,-0.0369,-0.0374,-0.0363,-0.0356,-0.033,-0.0343,-0.0318,-0.0317,-0.0316,-0.0261,-0.0181,-0.0252,-0.0248,-0.0176,-0.0023,-0.0057,-0.0042,-0.0171,-0.0168,-0.0166,0.0001,0,-0.0356,-0.0393,-0.038,-0.0416,-0.0438,-0.0419,-0.0422,-0.0413,-0.0395,-0.037,-0.0329,-0.0319,-0.0319,-0.0312,-0.0255,-0.0208,-0.0138,-0.0225,-0.0052,-0.0047,-0.007,-0.0025,-0.0158,0.0013,0.0017,0.002,0.0022,0,-0.0399,-0.0416,-0.0457,-0.0457,-0.0463,-0.0479,-0.0465,-0.0465,-0.0417,-0.0393,-0.0343,-0.0311,-0.0244,-0.0242,-0.0098,-0.0153,-0.0083,-0.0031,-0.0024,-0.0031,-0.005,0.0,0.0052,0.005,0.0047,0.0045,0.0044,0,-0.0439,-0.0464,-0.0498,-0.0503,-0.0509,-0.0511,-0.0512,-0.0478,-0.0468,-0.0401,-0.0374,-0.028,-0.0237,-0.0121,-0.0031,-0.0051,0.014,0.0127,0.0176,0.0174,0.0164,0.0155,0.0258,0.0258,0.0258,0.0257,0.0257,0,-0.0479,-0.0504,-0.0522,-0.0541,-0.0571,-0.055,-0.056,-0.0537,-0.0491,-0.0472,-0.0391,-0.0342,-0.0203,-0.0093,0.0003,0.0139,0.0177,0.0205,0.0223,0.0148,0.0135,0.0176,0.0165,0.0264,0.0262,0.0261,0.026,0,-0.0513,-0.0529,-0.0568,-0.0586,-0.0596,-0.0615,-0.0613,-0.0607,-0.0556,-0.052,-0.0498,-0.0373,-0.0224,-0.0083,0.0106,0.0168,0.0306,0.0344,0.0265,0.0272,0.0295,0.028,0.0444,0.0444,0.0445,0.0445,0.0445,0,-0.0531,-0.0559,-0.0609,-0.064,-0.0654,-0.0678,-0.0691,-0.0654,-0.0637,-0.0542,-0.0519,-0.0373,-0.0281,-0.0017,0.0119,0.0336,0.034,0.042,0.0357,0.0317,0.0319,0.0303,0.0288,0.0446,0.0446,0.0446,0.0446,0,-0.056,-0.0585,-0.0618,-0.0689,-0.0723,-0.0749,-0.0756,-0.0747,-0.0686,-0.0644,-0.0516,-0.0376,-0.0208,-0.0017,0.0145,0.0287,0.0375,0.0423,0.0423,0.0365,0.032,0.0319,0.0304,0.0447,0.0447,0.0447,0.0447,0,-0.0578,-0.0613,-0.0668,-0.0721,-0.0773,-0.0797,-0.0798,-0.0754,-0.0723,-0.0605,-0.0565,-0.0375,-0.0258,-0.0041,0.0107,0.0247,0.0274,0.0303,0.031,0.0311,0.0199,0.0118,0.0224,0,0,0,0,0,-0.0589,-0.0633,-0.0693,-0.0751,-0.0801,-0.0828,-0.0828,-0.081,-0.0751,-0.0667,-0.0609,-0.0449,-0.0206,-0.0093,0.0045,0.0092,0.0279,0.0254,0.0311,0.0453,0.0452,0.0337,0,0,0,0,0,0,-0.0599,-0.066,-0.0694,-0.076,-0.0804,-0.0848,-0.085,-0.0813,-0.0747,-0.0671,-0.0534,-0.0441,-0.0201,-0.0289,0.0038,0.0082,0.0131,0.0377,0.0379,0.0454,0.0453,0.0452,0.0333,0,0,0,0,0]}]]